Atlanta Fulton, GA

6:50 AM EST on November 13, 2019 (GMT -0500)
Fulton County-Brown

Weather History for KFTY - September, 2019

Change the Weather History Date:

Monday, September 23, 2019

  Actual Average Record
Temperature  
Mean Temperature 74 °F 71 °F  
Max Temperature 91 °F 81 °F 91 °F (2010)
Min Temperature 56 °F 60 °F 42 °F (1999)
Degree Days  
Heating Degree Days 0 1  
Month to date heating degree days 0 2  
Since 1 July heating degree days 0 2  
Cooling Degree Days 9 6  
Month to date cooling degree days 336 208  
Year to date cooling degree days 2052 1645  
Growing Degree Days 24 (Base 50)    
Moisture  
Dew Point 58 °F    
Average Humidity 64    
Maximum Humidity 93    
Minimum Humidity 34    
Precipitation  
Precipitation 0.00 in 0.13 in 1.19 in (2011)
Month to date precipitation 1.61 2.90  
Year to date precipitation 31.90 38.32  
Sea Level Pressure  
Sea Level Pressure 30.05 in    
Wind  
Wind Speed 2 mph (NNW)    
Max Wind Speed 10 mph    
Max Gust Speed 14 mph    
Visibility 10 miles    
Events      
T = Trace of Precipitation, MM = Missing Value Source: NWS Daily Summary

Daily Weather History Graph

Daily Weather History Graph

Search for Another Location

Airport or City:

Astronomy

Sep. 23, 2019 Rise Set
Actual Time 7:26 AM EDT 7:33 PM EDT
Civil Twilight 7:01 AM EDT 7:58 PM EDT
Nautical Twilight 6:32 AM EDT 8:27 PM EDT
Astronomical Twilight 6:03 AM EDT 8:56 PM EDT
Moon 1:26 AM EDT (9/23) 4:08 PM EDT (9/23)
Length of Visible Light 12h 56m
Length of Day
12h 07m
Waning Crescent, 33% of the Moon is Illuminated
Sep 23
Waning Crescent
Sep 28
New
Oct 5
First Quarter
Oct 13
Full
Oct 21
Last Quarter

Hourly Weather History & Observations

Time (EDT) Temp. Heat Index Dew Point Humidity Pressure Visibility Wind Dir Wind Speed Gust Speed Precip Events Conditions
12:53 AM 63.0 °F - 57.9 °F 84% 30.11 in 10.0 mi Calm Calm - N/A   Clear
1:53 AM 61.0 °F - 57.0 °F 87% 30.10 in 10.0 mi NNE 3.5 mph - N/A   Clear
2:53 AM 60.1 °F - 57.0 °F 90% 30.10 in 10.0 mi Calm Calm - N/A   Clear
3:53 AM 60.1 °F - 57.0 °F 90% 30.09 in 10.0 mi Calm Calm - N/A   Clear
4:53 AM 59.0 °F - 55.9 °F 90% 30.09 in 10.0 mi Calm Calm - N/A   Clear
5:53 AM 57.9 °F - 55.9 °F 93% 30.09 in 10.0 mi Calm Calm - N/A   Clear
6:53 AM 60.1 °F - 55.9 °F 86% 30.10 in 10.0 mi Calm Calm - N/A   Clear
7:53 AM 57.9 °F - 55.9 °F 93% 30.11 in 10.0 mi Calm Calm - N/A   Clear
8:53 AM 64.0 °F - 59.0 °F 84% 30.12 in 10.0 mi Calm Calm - N/A   Clear
9:53 AM 71.1 °F - 57.9 °F 63% 30.12 in 10.0 mi Calm Calm - N/A   Clear
10:53 AM 78.1 °F - 59.0 °F 52% 30.11 in 10.0 mi Variable 3.5 mph - N/A   Clear
11:53 AM 82.9 °F 82.1 °F 55.9 °F 39% 30.10 in 10.0 mi Calm Calm - N/A   Clear
12:53 PM 86.0 °F 84.7 °F 55.9 °F 36% 30.08 in 10.0 mi NW 9.2 mph - N/A   Clear
1:53 PM 88.0 °F 86.7 °F 57.0 °F 35% 30.05 in 10.0 mi NNW 5.8 mph - N/A   Clear
2:53 PM 88.0 °F 86.7 °F 57.0 °F 35% 30.02 in 10.0 mi North 5.8 mph - N/A   Clear
3:53 PM 90.0 °F 88.6 °F 57.0 °F 33% 30.00 in 10.0 mi Variable 3.5 mph - N/A   Clear
4:53 PM 90.0 °F 88.8 °F 57.9 °F 34% 29.98 in 10.0 mi NW 8.1 mph - N/A   Clear
5:53 PM 90.0 °F 88.8 °F 57.9 °F 34% 29.97 in 10.0 mi NNW 4.6 mph - N/A   Clear
6:53 PM 87.1 °F 86.7 °F 60.1 °F 40% 29.97 in 10.0 mi NW 3.5 mph - N/A   Clear
7:53 PM 82.0 °F 82.7 °F 61.0 °F 49% 29.97 in 10.0 mi Calm Calm - N/A   Clear
8:53 PM 77.0 °F - 62.1 °F 60% 29.97 in 10.0 mi Calm Calm - N/A   Clear
9:53 PM 73.9 °F - 63.0 °F 68% 29.98 in 10.0 mi Calm Calm - N/A   Clear
10:53 PM 73.9 °F - 63.0 °F 68% 29.98 in 10.0 mi Calm Calm - N/A   Scattered Clouds
11:53 PM 73.0 °F - 63.0 °F 71% 29.96 in 10.0 mi Calm Calm - N/A   Overcast